User: anonymous   Login
Location: Dunedin
(45.8670°S, 170.5000°E)
Time: 20:18:41
(UTC+13:00)
Language:

SL-08 RB Rocket - Orbit

View from above orbital plane
View from above orbital plane
View from above satellite
View from above satellite

Ground track
Ground track

The orbit data is extracted from the following two-line orbital elements,

1 26387U 00033D   19296.13411196  .00000080  00000-0  21784-4 0  9999
2 26387  97.8542 342.5524 0027665 123.4303 292.3979 14.68496426 33782
Epoch (UTC): 23 October 2019 03:13:07
Eccentricity: 0.0027665
inclination: 97.8542°
perigee height: 646 km
apogee height: 685 km
right ascension of ascending node: 342.5524°
argument of perigee: 123.4303°
revolutions per day: 14.68496426
mean anomaly at epoch: 292.3979°
orbit number at epoch: 3378

The dashed part of the orbit path shows where the satellite is in the earth's shadow,  

DLR